N2PUI Weather Reports


Display with metric or nautical units.
time (UTC)temp
F
wind
direction
speed
MPH
gust
MPH
rain 1hr
in
rain 24hr
in
rain mn
in
humidity
%
barometer
mb
20260831143847 65 122 3.0 3.0 0.00 0.00 0.00 93 1021.6
20260831143342 65 177 3.0 5.0 0.00 0.00 0.00 94 1021.7
20260831142837 64 131 3.0 3.0 0.00 0.00 0.00 95 1021.7
20260831142332 64 132 2.0 3.0 0.00 0.00 0.00 95 1021.4
20260831141832 63 113 3.0 3.0 0.00 0.00 0.00 95 1021.4
20260831141327 63 104 3.0 5.0 0.00 0.00 0.00 95 1021.3
20260831140822 63 110 3.0 5.0 0.00 0.00 0.00 95 1021.5
20260831140316 63 171 3.0 3.0 0.00 0.00 0.00 95 1021.6
20260831135814 63 169 1.0 2.0 0.00 0.00 0.00 95 1021.6
20260831135310 63 125 3.0 3.0 0.00 0.00 0.00 95 1021.6
20260831134805 62 146 0.0 0.0 0.00 0.00 0.00 95 1021.6
20260831134302 63 164 0.0 0.0 0.00 0.00 0.00 95 1021.9
20260831133800 62 155 0.0 0.0 0.00 0.00 0.00 95 1021.6
20260831133255 62 134 0.0 0.0 0.00 0.00 0.00 95 1021.8
20260831132750 62 163 0.0 0.0 0.00 0.00 0.00 95 1021.9
20260831132245 62 167 0.0 0.0 0.00 0.00 0.00 95 1021.9
20260831131744 62 155 0.0 0.0 0.00 0.00 0.00 95 1022.0
20260831131241 62 167 0.0 1.0 0.00 0.00 0.00 95 1022.1
20260831130736 61 167 0.0 0.0 0.00 0.00 0.00 95 1021.9
20260831130231 62 167 0.0 0.0 0.00 0.00 0.00 95 1021.8
20260831125730 61 166 0.0 0.0 0.00 0.00 0.00 95 1021.8
20260831125226 61 167 0.0 0.0 0.00 0.00 0.00 95 1021.6
20260831124720 60 152 0.0 0.0 0.00 0.00 0.00 95 1021.6
20260831124217 60 167 0.0 0.0 0.00 0.00 0.00 95 1021.7
20260831123716 60 167 0.0 0.0 0.00 0.00 0.00 95 1021.9
20260831123216 60 162 0.0 0.0 0.00 0.00 0.00 95 1021.9
20260831122710 60 161 0.0 0.0 0.00 0.00 0.00 95 1021.9
20260831122206 60 162 0.0 0.0 0.00 0.00 0.00 95 1022.0
20260831121705 60 174 0.0 1.0 0.00 0.00 0.00 95 1022.0
20260831121202 60 165 0.0 0.0 0.00 0.00 0.00 95 1022.1
20260831120657 60 165 0.0 0.0 0.00 0.00 0.00 95 1022.2
20260831120151 59 159 0.0 0.0 0.00 0.00 0.00 95 1022.4
20260831115647 59 159 0.0 0.0 0.00 0.00 0.00 95 1022.3
20260831115143 59 147 0.0 0.0 0.00 0.00 0.00 95 1022.2
20260831114642 59 148 0.0 0.0 0.00 0.00 0.00 95 1022.1
20260831114136 59 166 0.0 0.0 0.00 0.00 0.00 95 1022.2
20260831113631 59 166 0.0 0.0 0.00 0.00 0.00 95 1021.9
20260831113126 59 167 0.0 0.0 0.00 0.00 0.00 95 1021.9
20260831112625 59 143 0.0 0.0 0.00 0.00 0.00 95 1021.8
20260831112120 59 163 0.0 0.0 0.00 0.00 0.00 95 1021.8
20260831111616 59 165 0.0 0.0 0.00 0.00 0.00 95 1021.8
20260831111112 59 184 0.0 0.0 0.00 0.00 0.00 95 1022.0
20260831110607 59 175 0.0 0.0 0.00 0.00 0.00 95 1021.6
20260831105601 59 159 0.0 0.0 0.00 0.00 0.00 95 1021.5
20260831105056 59 156 0.0 0.0 0.00 0.00 0.00 95 1021.7
20260831104552 59 149 0.0 0.0 0.00 0.00 0.00 95 1021.6
20260831104048 59 148 0.0 0.0 0.00 0.00 0.00 95 1021.4
20260831103543 59 158 0.0 0.0 0.00 0.00 0.00 95 1021.5
20260831103033 59 118 0.0 0.0 0.00 0.00 0.00 95 1021.3
20260831102527 59 153 0.0 0.0 0.00 0.00 0.00 95 1021.4
20260831102022 59 151 0.0 0.0 0.00 0.00 0.00 95 1021.2
20260831101517 59 140 0.0 0.0 0.00 0.00 0.00 95 1021.3
20260831101014 59 144 0.0 0.0 0.00 0.00 0.00 95 1021.5
20260831100509 59 144 0.0 0.0 0.00 0.00 0.00 95 1021.3
20260831100005 59 144 0.0 0.0 0.00 0.00 0.00 95 1021.4
20260831095503 59 144 0.0 0.0 0.00 0.00 0.00 95 1021.4
20260831094958 59 145 0.0 0.0 0.00 0.00 0.00 95 1021.3
20260831094454 59 134 0.0 0.0 0.00 0.00 0.00 95 1021.3
20260831093950 59 144 0.0 0.0 0.00 0.00 0.00 95 1021.4
20260831093445 59 161 0.0 0.0 0.00 0.00 0.00 95 1021.4
20260831092941 59 163 0.0 0.0 0.00 0.00 0.00 95 1021.3
20260831092437 59 162 0.0 0.0 0.00 0.00 0.00 95 1021.4
20260831091932 59 163 0.0 0.0 0.00 0.00 0.00 95 1021.4
20260831091427 59 156 0.0 0.0 0.00 0.00 0.00 95 1021.4
20260831090922 59 163 0.0 0.0 0.00 0.00 0.00 95 1021.4
20260831090418 59 165 0.0 0.0 0.00 0.00 0.00 95 1021.3
20260831085914 59 166 0.0 0.0 0.00 0.00 0.00 95 1021.6
20260831085409 59 166 0.0 0.0 0.00 0.00 0.00 95 1021.5
20260831084909 59 146 0.0 0.0 0.00 0.00 0.00 95 1021.3
20260831084405 59 140 0.0 0.0 0.00 0.00 0.00 95 1021.3
20260831083901 59 137 0.0 0.0 0.00 0.00 0.00 95 1021.3
20260831083356 59 128 0.0 0.0 0.00 0.00 0.00 95 1021.4
20260831082855 59 165 0.0 0.0 0.00 0.00 0.00 95 1021.4
20260831082349 59 165 0.0 0.0 0.00 0.00 0.00 95 1021.6
20260831081845 59 165 0.0 0.0 0.00 0.00 0.00 95 1021.4
20260831081340 59 165 0.0 0.0 0.00 0.00 0.00 95 1021.3
20260831080837 60 163 0.0 0.0 0.00 0.00 0.00 95 1021.3
20260831080336 60 141 0.0 0.0 0.00 0.00 0.00 95 1021.1
20260831075832 60 141 0.0 0.0 0.00 0.00 0.00 95 1021.2
20260831075327 60 140 0.0 0.0 0.00 0.00 0.00 95 1021.3
20260831074822 60 141 0.0 0.0 0.00 0.00 0.00 95 1021.4
20260831074321 60 147 0.0 0.0 0.00 0.00 0.00 95 1021.2
20260831073817 60 147 0.0 0.0 0.00 0.00 0.00 95 1021.3
20260831073316 60 173 0.0 0.0 0.00 0.00 0.00 95 1021.2
20260831072811 60 154 0.0 0.0 0.00 0.00 0.00 95 1021.2
20260831072307 60 154 0.0 0.0 0.00 0.00 0.00 95 1021.3
20260831071803 60 154 0.0 0.0 0.00 0.00 0.00 95 1021.1
20260831071257 60 154 0.0 0.0 0.00 0.00 0.00 95 1021.2
20260831070757 60 153 0.0 0.0 0.00 0.00 0.00 95 1021.2
20260831070256 60 154 0.0 0.0 0.00 0.00 0.00 95 1021.3
20260831065755 60 154 0.0 0.0 0.00 0.00 0.00 95 1021.2
20260831065253 60 154 0.0 0.0 0.00 0.00 0.00 95 1021.3
20260831064748 60 154 0.0 0.0 0.00 0.00 0.00 95 1021.1
20260831064243 59 155 0.0 0.0 0.00 0.00 0.00 95 1021.1
20260831063740 59 156 0.0 0.0 0.00 0.00 0.00 95 1021.0
20260831063239 59 157 0.0 0.0 0.00 0.00 0.00 95 1021.4
20260831062734 59 142 0.0 0.0 0.00 0.00 0.00 95 1021.1
20260831062229 59 142 0.0 0.0 0.00 0.00 0.00 95 1021.3
20260831061727 59 142 0.0 0.0 0.00 0.00 0.00 95 1021.4
20260831061222 59 154 0.0 0.0 0.00 0.00 0.00 95 1021.6
20260831060718 59 157 0.0 0.0 0.00 0.00 0.00 95 1021.4
20260831060213 59 139 0.0 0.0 0.00 0.00 0.00 95 1021.8
20260831055713 59 139 0.0 0.0 0.00 0.00 0.00 95 1021.8
20260831055207 59 139 0.0 0.0 0.00 0.00 0.00 95 1022.0
20260831054702 59 139 0.0 0.0 0.00 0.00 0.00 95 1021.7
20260831054201 59 140 0.0 0.0 0.00 0.00 0.00 95 1021.6
20260831053656 60 139 0.0 0.0 0.00 0.00 0.00 95 1021.8
20260831053154 60 131 0.0 0.0 0.00 0.00 0.00 95 1021.9
20260831052649 59 163 0.0 0.0 0.00 0.00 0.00 94 1021.9
20260831052148 60 163 0.0 0.0 0.00 0.00 0.00 94 1021.9
20260831051646 60 163 0.0 0.0 0.00 0.00 0.00 94 1021.8
20260831051145 60 167 0.0 0.0 0.00 0.00 0.00 94 1021.6
20260831050640 60 172 0.0 0.0 0.00 0.00 0.00 94 1021.9
20260831050139 60 151 0.0 0.0 0.00 0.00 0.00 94 1021.7
20260831045638 61 144 0.0 0.0 0.00 0.00 0.00 94 1021.8
20260831045133 61 134 0.0 0.0 0.00 0.00 0.00 93 1021.7
20260831044629 61 154 0.0 0.0 0.00 0.00 0.00 93 1021.6
20260831044124 61 134 0.0 0.0 0.00 0.00 0.00 93 1021.7
20260831043619 60 134 0.0 0.0 0.00 0.00 0.00 93 1021.7
20260831043109 61 134 0.0 0.0 0.00 0.00 0.00 93 1021.9
20260831042608 61 137 0.0 0.0 0.00 0.00 0.00 92 1021.8
20260831042103 61 135 0.0 0.0 0.00 0.00 0.00 92 1021.5
20260831041558 62 135 0.0 0.0 0.00 0.00 0.00 92 1021.8
20260831041057 62 135 0.0 0.0 0.00 0.00 0.00 92 1021.8
20260831040552 62 136 0.0 0.0 0.00 0.00 0.00 92 1021.7
20260831040051 62 134 0.0 0.0 0.00 0.00 0.00 92 1021.8
20260831035543 62 138 0.0 0.0 0.00 0.00 0.00 91 1021.6
20260831035039 62 138 0.0 0.0 0.00 0.00 0.00 91 1021.6
20260831034538 63 138 0.0 0.0 0.00 0.00 0.00 91 1021.8
20260831034034 62 139 0.0 0.0 0.00 0.00 0.00 91 1021.6
20260831033530 63 139 0.0 0.0 0.00 0.00 0.00 90 1021.8
20260831033025 63 139 0.0 0.0 0.00 0.00 0.00 90 1021.7
20260831032524 63 139 0.0 0.0 0.00 0.00 0.00 90 1021.7
20260831032020 63 139 0.0 0.0 0.00 0.00 0.00 90 1021.8
20260831031519 64 140 0.0 0.0 0.00 0.00 0.00 90 1021.6
20260831031019 64 140 0.0 0.0 0.00 0.00 0.00 90 1021.8
20260831030518 64 140 0.0 0.0 0.00 0.00 0.00 90 1021.7
20260831030017 64 140 0.0 0.0 0.00 0.00 0.00 90 1021.9
20260831025510 64 138 0.0 0.0 0.00 0.00 0.00 89 1021.7
20260831025005 64 160 0.0 0.0 0.00 0.00 0.00 89 1021.6
20260831024501 65 160 0.0 0.0 0.00 0.00 0.00 89 1021.7
20260831024000 65 162 0.0 0.0 0.00 0.00 0.00 89 1021.5
20260831023458 65 162 0.0 0.0 0.00 0.00 0.00 89 1021.9
20260831022953 65 151 0.0 0.0 0.00 0.00 0.00 89 1021.7
20260831022452 65 148 0.0 0.0 0.00 0.00 0.00 88 1021.7
20260831021948 65 117 0.0 0.0 0.00 0.00 0.00 88 1021.8
20260831021446 65 145 0.0 0.0 0.00 0.00 0.00 88 1022.0
20260831020942 65 145 0.0 0.0 0.00 0.00 0.00 88 1021.9
20260831020437 65 144 0.0 0.0 0.00 0.00 0.00 88 1021.7
20260831015932 65 146 0.0 0.0 0.00 0.00 0.00 88 1021.6
20260831015428 65 147 0.0 0.0 0.00 0.00 0.00 87 1021.6
20260831014922 65 147 0.0 0.0 0.00 0.00 0.00 87 1021.7
20260831014417 65 147 0.0 0.0 0.00 0.00 0.00 87 1021.5
20260831013913 65 147 0.0 0.0 0.00 0.00 0.00 86 1021.6
20260831013409 65 128 0.0 0.0 0.00 0.00 0.00 86 1021.6
20260831012903 65 181 0.0 0.0 0.00 0.00 0.00 86 1021.5
20260831012358 65 182 0.0 0.0 0.00 0.00 0.00 86 1021.5
20260831011858 65 29 2.0 2.0 0.00 0.00 0.00 86 1021.7
20260831011352 66 104 1.0 2.0 0.00 0.00 0.00 85 1021.6
20260831010848 66 138 0.0 0.0 0.00 0.00 0.00 85 1021.7
20260831010348 66 116 1.0 1.0 0.00 0.00 0.00 84 1021.7
20260831005844 66 175 0.0 0.0 0.00 0.00 0.00 84 1021.3
20260831005339 67 165 0.0 0.0 0.00 0.00 0.00 83 1021.2
20260831004834 67 139 0.0 0.0 0.00 0.00 0.00 83 1021.3
20260831004330 67 152 0.0 0.0 0.00 0.00 0.00 83 1021.0
20260831003825 67 177 0.0 1.0 0.00 0.00 0.00 83 1021.2
20260831003322 67 193 2.0 2.0 0.00 0.00 0.00 83 1021.0
20260831002820 67 182 0.0 1.0 0.00 0.00 0.00 83 1020.8
20260831002314 67 284 1.0 2.0 0.00 0.00 0.00 83 1020.4
20260831001811 67 196 1.0 1.0 0.00 0.00 0.00 82 1020.6
20260831001305 67 161 0.0 1.0 0.00 0.00 0.00 82 1020.4
20260831000803 67 141 0.0 1.0 0.00 0.00 0.00 82 1020.5
20260831000303 67 120 1.0 1.0 0.00 0.00 0.00 82 1020.4
20260830235801 67 136 0.0 0.0 0.00 0.00 0.00 81 1020.5
20260830235256 68 144 1.0 2.0 0.00 0.00 0.00 81 1020.2
20260830234751 68 179 1.0 2.0 0.00 0.00 0.00 80 1020.4
20260830234247 68 227 3.0 3.0 0.00 0.00 0.00 80 1020.3
20260830233743 68 231 2.0 2.0 0.00 0.00 0.00 80 1020.3
20260830233238 68 185 1.0 1.0 0.00 0.00 0.00 80 1020.4
20260830232734 68 191 2.0 2.0 0.00 0.00 0.00 80 1020.4
20260830232229 68 298 2.0 2.0 0.00 0.00 0.00 81 1020.3
20260830231726 68 178 1.0 1.0 0.00 0.00 0.00 81 1020.2
20260830231225 68 144 0.0 1.0 0.00 0.00 0.00 81 1020.3
20260830230720 68 174 0.0 0.0 0.00 0.00 0.00 81 1020.5
20260830230215 68 166 0.0 0.0 0.00 0.00 0.00 81 1020.4
20260830225709 68 156 0.0 0.0 0.00 0.00 0.00 80 1020.3
20260830225204 68 161 0.0 0.0 0.00 0.00 0.00 80 1020.5
20260830224703 69 176 0.0 1.0 0.00 0.00 0.00 80 1020.4
20260830224159 69 155 0.0 1.0 0.00 0.00 0.00 80 1020.3
20260830223655 69 128 1.0 1.0 0.00 0.00 0.00 79 1020.4
20260830223150 69 138 0.0 1.0 0.00 0.00 0.00 79 1020.3
20260830222644 69 162 1.0 1.0 0.00 0.00 0.00 79 1020.1
20260830222140 69 178 0.0 0.0 0.00 0.00 0.00 79 1020.3
20260830221630 69 146 0.0 0.0 0.00 0.00 0.00 79 1020.0
20260830221126 69 187 1.0 1.0 0.00 0.00 0.00 79 1020.2
20260830220621 69 155 0.0 0.0 0.00 0.00 0.00 79 1020.3
20260830220120 69 149 0.0 0.0 0.00 0.00 0.00 79 1020.2
20260830215619 69 147 0.0 0.0 0.00 0.00 0.00 78 1020.2
20260830215114 70 180 0.0 1.0 0.00 0.00 0.00 78 1020.0
20260830214609 70 156 1.0 1.0 0.00 0.00 0.00 76 1020.0
20260830214103 70 159 0.0 0.0 0.00 0.00 0.00 76 1019.8
20260830213557 70 173 0.0 0.0 0.00 0.00 0.00 75 1020.2
20260830213053 70 240 2.0 2.0 0.00 0.00 0.00 75 1020.2
20260830212549 70 176 0.0 1.0 0.00 0.00 0.00 74 1020.3
20260830212043 70 309 1.0 2.0 0.00 0.00 0.00 75 1020.1
20260830211538 70 276 2.0 3.0 0.00 0.00 0.00 75 1020.3
20260830211037 70 178 1.0 1.0 0.00 0.00 0.00 75 1020.2
20260830210532 70 179 0.0 0.0 0.00 0.00 0.00 75 1020.3
20260830210026 70 197 1.0 1.0 0.00 0.00 0.00 74 1020.5
20260830205524 71 210 1.0 1.0 0.00 0.00 0.00 73 1020.1
20260830205020 71 186 1.0 2.0 0.00 0.00 0.00 73 1020.0
20260830204518 71 187 0.0 0.0 0.00 0.00 0.00 74 1020.2
20260830204013 71 184 0.0 0.0 0.00 0.00 0.00 74 1020.2
20260830203509 70 184 0.0 0.0 0.00 0.00 0.00 74 1020.2
20260830203004 70 184 0.0 0.0 0.00 0.00 0.00 75 1020.2
20260830202458 70 210 0.0 0.0 0.00 0.00 0.00 74 1020.4
20260830201954 70 189 0.0 0.0 0.00 0.00 0.00 73 1020.2
20260830201453 70 181 0.0 0.0 0.00 0.00 0.00 73 1020.4
20260830200948 71 154 1.0 1.0 0.00 0.00 0.00 72 1020.5
20260830200443 71 161 0.0 0.0 0.00 0.00 0.00 72 1020.3
20260830195937 71 176 0.0 0.0 0.00 0.00 0.00 72 1020.4
20260830195433 71 196 1.0 1.0 0.00 0.00 0.00 71 1020.4
20260830194930 71 0 2.0 2.0 0.00 0.00 0.00 71 1020.1
20260830194425 71 203 2.0 2.0 0.00 0.00 0.00 70 1020.1
20260830193924 71 196 1.0 2.0 0.00 0.00 0.00 70 1020.3
20260830193423 71 298 3.0 3.0 0.00 0.00 0.00 70 1020.3
20260830192919 72 282 2.0 2.0 0.00 0.00 0.00 71 1020.3
20260830192414 72 311 2.0 2.0 0.00 0.00 0.00 70 1020.4
20260830191914 72 310 5.0 7.0 0.00 0.00 0.00 69 1020.2
20260830191409 73 326 6.0 8.0 0.00 0.00 0.00 69 1020.3
20260830190905 73 261 3.0 3.0 0.00 0.00 0.00 69 1020.2
20260830190400 74 9 3.0 3.0 0.00 0.00 0.00 69 1020.2
20260830185859 74 30 2.0 2.0 0.00 0.00 0.00 69 1020.2
20260830185354 75 275 3.0 6.0 0.00 0.00 0.00 69 1020.1
20260830184849 75 197 1.0 1.0 0.00 0.00 0.00 71 1020.1
20260830184348 75 141 1.0 1.0 0.00 0.00 0.00 71 1020.3
20260830183843 76 169 1.0 1.0 0.00 0.00 0.00 70 1020.1
20260830183343 77 157 0.0 1.0 0.00 0.00 0.00 69 1020.2
20260830182838 77 185 0.0 0.0 0.00 0.00 0.00 67 1020.0
20260830182334 77 154 0.0 1.0 0.00 0.00 0.00 67 1020.0
20260830181830 77 192 1.0 1.0 0.00 0.00 0.00 67 1020.2
20260830181325 77 146 0.0 1.0 0.00 0.00 0.00 68 1020.1
20260830180824 77 200 1.0 1.0 0.00 0.00 0.00 65 1020.4
20260830180319 77 185 0.0 0.0 0.00 0.00 0.00 65 1020.0
20260830175818 76 183 1.0 2.0 0.00 0.00 0.00 64 1020.2
20260830175313 77 299 3.0 3.0 0.00 0.00 0.00 64 1020.2
20260830174809 77 263 2.0 2.0 0.00 0.00 0.00 65 1020.3
20260830174304 78 144 2.0 2.0 0.00 0.00 0.00 63 1020.3
20260830173803 77 189 1.0 1.0 0.00 0.00 0.00 62 1020.3
20260830173259 77 185 0.0 1.0 0.00 0.00 0.00 62 1020.3
20260830172755 77 179 0.0 1.0 0.00 0.00 0.00 67 1020.4
20260830172252 77 176 1.0 1.0 0.00 0.00 0.00 63 1020.5
20260830171747 77 186 1.0 1.0 0.00 0.00 0.00 64 1020.7
20260830171242 77 31 3.0 3.0 0.00 0.00 0.00 62 1020.5
20260830170737 78 147 2.0 3.0 0.00 0.00 0.00 63 1020.3
20260830170236 78 264 2.0 2.0 0.00 0.00 0.00 63 1020.7
20260830165735 77 157 0.0 0.0 0.00 0.00 0.00 62 1020.5
20260830165231 78 185 1.0 1.0 0.00 0.00 0.00 66 1020.5
20260830164727 78 182 2.0 2.0 0.00 0.00 0.00 62 1020.7
20260830164222 77 169 0.0 1.0 0.00 0.00 0.00 65 1020.8
20260830163714 78 196 2.0 2.0 0.00 0.00 0.00 64 1020.7
20260830163209 76 193 1.0 2.0 0.00 0.00 0.00 64 1020.5
20260830162704 78 317 3.0 3.0 0.00 0.00 0.00 62 1020.8
20260830162200 79 284 2.0 2.0 0.00 0.00 0.00 61 1021.0
20260830161654 79 174 1.0 2.0 0.00 0.00 0.00 63 1021.1
20260830161149 76 163 1.0 1.0 0.00 0.00 0.00 66 1021.0
20260830160645 74 174 1.0 1.0 0.00 0.00 0.00 67 1021.1
20260830160139 75 190 1.0 2.0 0.00 0.00 0.00 67 1021.1
20260830155636 75 190 1.0 1.0 0.00 0.00 0.00 66 1021.2
20260830155132 73 187 2.0 2.0 0.00 0.00 0.00 70 1021.1
20260830154626 73 171 2.0 2.0 0.00 0.00 0.00 71 1021.5
20260830154123 72 178 1.0 1.0 0.00 0.00 0.00 71 1021.3
20260830153619 72 172 3.0 3.0 0.00 0.00 0.00 71 1021.6
20260830153119 73 129 0.0 1.0 0.00 0.00 0.00 69 1021.6
20260830152618 72 192 2.0 2.0 0.00 0.00 0.00 71 1021.6
20260830152117 70 173 3.0 3.0 0.00 0.00 0.00 73 1021.4
20260830151612 71 117 3.0 3.0 0.00 0.00 0.00 72 1021.5
20260830151106 70 189 3.0 3.0 0.00 0.00 0.00 73 1021.4
20260830150601 69 179 0.0 0.0 0.00 0.00 0.00 72 1021.6
20260830150056 69 180 1.0 1.0 0.00 0.00 0.00 73 1021.5
20260830145555 69 148 1.0 2.0 0.00 0.00 0.00 74 1021.7
20260830145050 68 184 3.0 3.0 0.00 0.00 0.00 74 1021.5
20260830144546 69 132 2.0 2.0 0.00 0.00 0.00 73 1021.5
20260830144042 69 149 0.0 1.0 0.00 0.00 0.00 72 1021.8